AirNav   TITAN Aviation Fuels
 
 519 users online  

U98 Idaho City USFS Airport
Idaho City, Idaho, USA

GOING TO IDAHO CITY?


FAA INFORMATION EFFECTIVE 26 JANUARY 2023

Location

FAA Identifier: U98
Lat/Long: 43-49-14.6150N 115-51-03.3940W
43-49.243583N 115-51.056567W
43.8207264,-115.8509428
(estimated)
Elevation: 3920 ft. / 1195 m (estimated)
Variation: 17E (1985)
From city: 1 mile SW of IDAHO CITY, ID
Time zone: UTC -7 (UTC -6 during Daylight Saving Time)
Zip code: 83631

Airport Operations

Airport use: Open to the public
Activation date: 11/1948
Control tower: no
ARTCC: SALT LAKE CITY CENTER
FSS: BOISE FLIGHT SERVICE STATION
NOTAMs facility: BOI (NOTAM-D service available)
Attendance: UNATNDD
Wind indicator: yes
Segmented circle: yes

Airport Communications

CTAF: 122.9

Nearby radio navigation aids

VOR radial/distance  VOR name  Freq  Var
BOIr026/21.9BOISE VORTAC113.3017E

Airport Services

Airframe service: NONE
Powerplant service: NONE
Bottled oxygen: NONE
Bulk oxygen: NONE

Runway Information

Runway 4/22

Dimensions: 3400 x 50 ft. / 1036 x 15 m
Surface: turf/gravel, in good condition
FIRST 900 FT OF RWY END 4 IS TURF; RMNG IS DIRT/GRVL MIX.
Runway edge markings: 04/22 EDGES & THRS MARKED WITH WHITE ROCK.
Operational restrictions: RECOMMEND LAND RY 04; TKOFF RY 22; WHEN WIND CONDITIONS PERMIT.
RUNWAY 4  RUNWAY 22
Traffic pattern: leftleft
Obstructions: 50 ft. trees, 20 ft. from runway, 55 ft. left of centerline, 1:1 slope to clear
70 FT TREES LCTD ON L SIDE OF RWY - ADJ TO RWY END BOUNDARY MKR.
70 ft. trees, 60 ft. from runway, 105 ft. left of centerline, 1:1 slope to clear

Airport Ownership and Management from official FAA records

Ownership: Publicly-owned
Owner: US FOREST SERVICE
324 25TH ST
OGDEN, UT 84401
Phone 801-625-5511
Manager: CHRIS BOLDMAN- AV OFCR. BOISE NF
3833 HIGHWAY 21 OR P.O. BOX 129
IDAHO CITY, ID 83763
Phone (208) 392-6681

Airport Operational Statistics

Aircraft operations: avg 38/week *
75% transient general aviation
20% air taxi
5% military
* for 12-month period ending 30 March 2022

Additional Remarks

A52 NMRS ADDNL TREES/OBSTNS ON APCHS TO RWY 04 & 22.
NO WINTER MAINTENANCE.
USFS HELICOPTER OPNS DURING FIRE SEASON.
NO TELEPHONE AVBL AT ARPT.
WEST 700 FT OF RY IS TURF; REMAINDER IS GRVL.
FOR CD CTC BIG SKY APCH AT 208-364-5860/5861.

Instrument Procedures

There are no published instrument procedures at U98.

Some nearby airports with instrument procedures:

KBOI - Boise Air Terminal/Gowen Field (22 nm SW)
KMAN - Nampa Municipal Airport (33 nm SW)
KEUL - Caldwell Executive Airport (36 nm W)
U76 - Mountain Home Municipal Airport (42 nm S)
KMUO - Mountain Home Air Force Base (47 nm S)
 
Loc | Ops | Rwys | IFR | FBO | Links
Com | Nav | Svcs | Stats | Notes
Area around U98 (Idaho City USFS Airport)
 
Road maps at: MapQuest Bing Google
 
Aerial photo
WARNING: Photo may not be current or correct
Aerial photo of U98 (Idaho City USFS Airport)
Photo by Bob Christensen
Photo taken 20-May-2012
looking north.

Do you have a better or more recent aerial photo of Idaho City USFS Airport that you would like to share? If so, please send us your photo.

 
Sectional chart

 
Airport distance calculator
Flying to Idaho City USFS Airport? Find the distance to fly.

From to U98

Sunrise and sunset
Times for 27-Jan-2023
 Local
(UTC-7)
 Zulu
(UTC)
Morning civil twilight07:3614:36
Sunrise08:0715:07
Sunset17:4600:46
Evening civil twilight18:1701:17

Current date and time
Zulu (UTC)  27-Jan-2023 07:29:06
Local (UTC-7)  27-Jan-2023 00:29:06
 
METAR
KBOI 
23nm SW 
270653Z 00000KT 10SM FEW080 OVC100 02/M02 A3027 RMK AO2 SLP261 T00171017 400891022
KMAN 
33nm SW 
270715Z AUTO 00000KT 10SM 01/00 A3027 RMK A01
KEUL 
35nm W 
270656Z AUTO 00000KT 10SM FEW110 01/M01 A3029 RMK AO2 SLP274 T00061006 400891011 FZRANO
KSNT 
45nm NE 
270651Z AUTO 24003KT M01/M05 A3019 RMK AO1 SLP226 T10111050 400111172
TAF
KBOI 
23nm SW 
270521Z 2706/2806 VRB04KT P6SM SCT060 OVC120 FM271500 VRB03KT P6SM OVC035 PROB30 2716/2720 5SM -RASN OVC020 FM272100 31006KT P6SM VCSH OVC025 FM280300 VRB03KT P6SM OVC025
NOTAMs
Click for the latest NOTAMs
NOTAMs are issued by the DoD/FAA and will open in a separate window not controlled by AirNav.

 

 
 

Would you like to see your business listed on this page?

 If your business provides an interesting product or service to pilots, flight crews, aircraft, or users of the Idaho City USFS Airport, you should consider listing it here.  To start the listing process, click on the button below
 
Add a business
 

Other Pages about Idaho City USFS Airport

Update a link
 
Copyright © AirNav, LLC. All rights reserved. Privacy Policy  Contact